Regional Weather Roundup
Issued by NWS

Home | Current Version | Previous Version | Text Only | Print | Product List | Glossary Off
Versions: 1 2 3 4 5 6 7 8 9 10 11 12 13 14 15 16 17 18 19 20 21 22 23 24 25 26 27 28 29 30 31 32 33 34 35 36 37 38 39 40 41 42 43 44 45 46 47 48 49 50

000
ASUS43 KLSX 240610
RWRMO

WEATHER SUMMARY FOR MISSOURI
NATIONAL WEATHER SERVICE SPRINGFIELD MO
100 AM CDT TUE APR 24 2018

NOTE: "FAIR" INDICATES FEW OR NO CLOUDS BELOW 12,000 FEET WITH NO
       SIGNIFICANT WEATHER AND/OR OBSTRUCTIONS TO VISIBILITY.
       CURRENT SKY AND/OR WEATHER CONDITIONS ARE NOT AVAILABLE FOR
       CHILLICOTHE AND FARMINGTON.

MOZ001>031-035>038-043-044-053-054-240700-
...NORTHERN AND WESTERN MISSOURI...

CITY           SKY/WX    TMP DP  RH WIND       PRES   REMARKS
KANSAS CTY INT CLEAR     56  31  38 NE5       30.05F
6HR MIN TEMP:  56; 6HR MAX TEMP:  72;

KANSAS C DTWN  CLEAR     52  38  58 N3        30.04S
6HR MIN TEMP:  51; 6HR MAX TEMP:  75;

LEE`S SUMMIT   CLEAR     58  32  37 NE3       30.05S
6HR MIN TEMP:  57; 6HR MAX TEMP:  72;

ST JOSEPH      CLEAR     49  33  54 N3        30.07R
6HR MIN TEMP:  46; 6HR MAX TEMP:  73;

CHILLICOTHE      N/A     49  33  54 N3        30.06S
6HR MIN TEMP:  48; 6HR MAX TEMP:  73;

KIRKSVILLE     CLOUDY    49  32  52 NE8       30.05S
6HR MIN TEMP:  49; 6HR MAX TEMP:  68;


$$
MOZ066>068-077>081-088>096-101>105-240700-
...SOUTHWEST MISSOURI...

CITY           SKY/WX    TMP DP  RH WIND       PRES   REMARKS
SPRINGFIELD    CLEAR     49  42  77 CALM      30.00F
6HR MIN TEMP:  48; 6HR MAX TEMP:  65;

JOPLIN         CLEAR     49  44  83 CALM      30.03S
6HR MIN TEMP:  49; 6HR MAX TEMP:  70;

BRANSON        CLEAR     54  48  82 CALM      30.01S

$$
MOZ032>034-039>042-045>050-055>058-069>072-240700-
...CENTRAL MISSOURI...

CITY           SKY/WX    TMP DP  RH WIND       PRES   REMARKS
COLUMBIA       PTCLDY    57  49  74 E3        30.01S
6HR MIN TEMP:  57; 6HR MAX TEMP:  70;

JEFFERSON CITY CLOUDY    61  50  67 CALM      30.00F
6HR MIN TEMP:  60; 6HR MAX TEMP:  68;

ROLLA          CLOUDY    56  51  84 NE5       30.00F
6HR MIN TEMP:  56; 6HR MAX TEMP:  59;

SEDALIA        PTCLDY    54  37  52 N6        30.03R
6HR MIN TEMP:  54; 6HR MAX TEMP:  69;

WHITEMAN AFB   PTCLDY    50  34  54 N5        29.99S
WARRENSBURG    CLEAR     55  32  41 N5        30.03S
OSAGE BEACH    PTCLDY    53  51  93 CALM      30.01

$$
MOZ051-052-059>065-240700-
...EAST CENTRAL MISSOURI...

CITY           SKY/WX    TMP DP  RH WIND       PRES   REMARKS
ST LOUIS INTL  CLOUDY    57  55  93 N6        29.99S
6HR MIN TEMP:  57; 6HR MAX TEMP:  58;

SPIRIT OF STL  CLOUDY    57  55  93 N6        29.98S
6HR MIN TEMP:  57; 6HR MAX TEMP:  59;

ST CHARLES     CLOUDY    57  54  89 N7        29.99S
6HR MIN TEMP:  56; 6HR MAX TEMP:  59;


$$
MOZ072>076-082>087-097>100-106>115-240700-
...SOUTH CENTRAL AND SOUTHEAST MISSOURI...

CITY           SKY/WX    TMP DP  RH WIND       PRES   REMARKS
CAPE GIRARDEAU MOCLDY    55  53  93 NW5       29.93R
6HR MIN TEMP:  53; 6HR MAX TEMP:  60; 6HR PCP:  0.01;

FARMINGTON       N/A     55  54  96 N5        29.97F FOG
6HR MIN TEMP:  55; 6HR MAX TEMP:  56; 6HR PCP: TRACE;

POPLAR BLUFF   CLOUDY    58  57  97 N7        29.94S
6HR MIN TEMP:  57; 6HR MAX TEMP:  62; 6HR PCP: TRACE;

WEST PLAINS    CLEAR     52  50  93 NW6       29.98S
6HR MIN TEMP:  52; 6HR MAX TEMP:  58;


$$



USA.gov is the U.S. government's official web portal to all federal, state and local government web resources and services.